This is the latest recevied weather packets stored in our database for station/object IK6ZNK-3. If no packets are shown the sender has not sent any weather packets the latest 10 day(s).
| Time | Temp. | Humidity | Pressure | Rain* | Wind** | Luminosity | Snow |
|---|---|---|---|---|---|---|---|
| 1777788606 | 16.11° C | 44% | 1011.9 hPa | 0 mm | - | - | - |
| 1777788007 | 16.67° C | 44% | 1012.1 hPa | 0 mm | - | - | - |
| 1777787406 | 16.67° C | 40% | 1011.8 hPa | 0 mm | - | - | - |
| 1777786806 | 16.67° C | 43% | 1011.9 hPa | 0 mm | - | - | - |
| 1777786206 | 15.56° C | 42% | 1011.7 hPa | 0 mm | - | - | - |
| 1777785606 | 15.56° C | 45% | 1011.9 hPa | 0 mm | - | - | - |
| 1777785006 | 15.56° C | 43% | 1011.9 hPa | 0 mm | - | - | - |
| 1777784406 | 14.44° C | 44% | 1011.8 hPa | 0 mm | - | - | - |
| 1777783807 | 14.44° C | 46% | 1011.8 hPa | 0 mm | - | - | - |
| 1777783206 | 13.89° C | 45% | 1011.7 hPa | 0 mm | - | - | - |
| 1777782607 | 13.33° C | 47% | 1011.6 hPa | 0 mm | - | - | - |
| 1777782006 | 12.78° C | 49% | 1011.7 hPa | 0 mm | - | - | - |
| 1777781406 | 13.33° C | 49% | 1011.8 hPa | 0 mm | - | - | - |
| 1777780806 | 13.33° C | 46% | 1011.5 hPa | 0 mm | - | - | - |
| 1777780206 | 13.33° C | 46% | 1011.6 hPa | 0 mm | - | - | - |
| 1777779607 | 13.89° C | 46% | 1011.5 hPa | 0 mm | - | - | - |
| 1777779007 | 13.33° C | 45% | 1011.6 hPa | 0 mm | - | - | - |
| 1777778406 | 14.44° C | 44% | 1011.6 hPa | 0 mm | - | - | - |
| 1777777806 | 14.44° C | 41% | 1011.8 hPa | 0 mm | - | - | - |
| 1777777207 | 13.89° C | 44% | 1011.8 hPa | 0 mm | - | - | - |
| 1777776606 | 14.44° C | 43% | 1011.9 hPa | 0 mm | - | - | - |
| 1777776006 | 13.89° C | 43% | 1011.9 hPa | 0 mm | - | - | - |
| 1777775407 | 14.44° C | 43% | 1011.9 hPa | 0 mm | - | - | - |
| 1777774806 | 14.44° C | 42% | 1012.1 hPa | 0 mm | - | - | - |
| 1777774206 | 14.44° C | 43% | 1012.1 hPa | 0 mm | - | - | - |
* Rain latest hour (hover to see other rain measurements)
** Current wind speed in m/s (hover to see current wind gust speed)